Location: Presov
(49.0000°N, 21.2500°E)
Time: 23:33:32
(UTC+02:00)

Transit 2A Rocket - Pass Details

Date: 15 April 2021
Orbit: 594 x 908 km, 66.7° (Epoch: 05 May)

Event Time Altitude Azimuth Distance (km) Brightness Sun altitude
Rises 16:20:16 0° 185° (S) 2,975 8.4 29.3°
Reaches altitude 10° 16:22:50 10° 174° (S) 2,025 7.5 28.9°
Maximum altitude 16:26:43 29° 115° (ESE) 1,143 5.8 28.3°
Drops below altitude 10° 16:30:29 10° 55° (NE) 1,950 6.7 27.7°
Sets 16:32:54 0° 44° (NE) 2,845 7.5 27.3°
